"Period start","avg(HW err(1)/warn(2) (#))","avg(Visibility (m))","avg(Weather code (#))","avg(Precip intensity (mm/h))","min(HW err(1)/warn(2) (#))","max(HW err(1)/warn(2) (#))","std(HW err(1)/warn(2) (#))","med(HW err(1)/warn(2) (#))","min(Visibility (m))","max(Visibility (m))","std(Visibility (m))","med(Visibility (m))","min(Weather code (#))","max(Weather code (#))","std(Weather code (#))","med(Weather code (#))","min(Precip intensity (mm/h))","max(Precip intensity (mm/h))","std(Precip intensity (mm/h))","med(Precip intensity (mm/h))"
2014-03-26 00:00:00,2,10505,36,0.00,2,2,0,2,7220,14260,2276,10284,10,77,32,10,0.00,0.00,0.00,0.00
2014-03-26 00:10:00,2,17192,2,0.00,2,2,0,2,10551,25364,3885,17636,0,10,4,0,0.00,0.00,0.00,0.00
2014-03-26 00:20:00,2,14132,0,0.00,2,2,0,2,10061,23596,3929,12495,0,0,0,0,0.00,0.00,0.00,0.00
2014-03-26 00:30:00,2,11388,0,0.00,2,2,0,2,8807,14392,1623,11013,0,0,0,0,0.00,0.00,0.00,0.00
2014-03-26 00:40:00,2,9408,50,0.04,2,2,0,2,7005,13928,1945,8890,0,71,33,71,0.00,0.10,0.05,0.00
2014-03-26 00:50:00,2,7734,59,0.03,2,2,0,2,6486,9336,770,7703,10,71,24,71,0.00,0.20,0.06,0.00
2014-03-26 01:00:00,2,11126,36,0.00,2,2,0,2,8720,14306,1980,10515,10,78,32,10,0.00,0.00,0.00,0.00
2014-03-26 01:10:00,2,14349,0,0.00,2,2,0,2,9706,17263,2167,14355,0,0,0,0,0.00,0.00,0.00,0.00
2014-03-26 01:20:00,2,13180,0,0.00,2,2,0,2,9302,17292,2791,12550,0,0,0,0,0.00,0.00,0.00,0.00
2014-03-26 01:30:00,2,11630,0,0.00,2,2,0,2,9527,14980,1860,11612,0,0,0,0,0.00,0.00,0.00,0.00
2014-03-26 01:40:00,2,19240,30,0.00,2,2,0,2,14571,25698,2889,19736,0,78,37,0,0.00,0.00,0.00,0.00
2014-03-26 01:50:00,2,21486,0,0.00,2,2,0,2,16053,29734,4461,20899,0,0,0,0,0.00,0.00,0.00,0.00
2014-03-26 02:00:00,2,25697,0,0.00,2,2,0,2,18618,33254,4721,25696,0,0,0,0,0.00,0.00,0.00,0.00
2014-03-26 02:10:00,2,26590,0,0.00,2,2,0,2,18377,39838,5437,26556,0,0,0,0,0.00,0.00,0.00,0.00
2014-03-26 02:20:00,2,26331,0,0.00,2,2,0,2,15235,36214,5561,26241,0,0,0,0,0.00,0.00,0.00,0.00
2014-03-26 02:30:00,2,26918,0,0.00,2,2,0,2,16240,46930,8943,24786,0,0,0,0,0.00,0.00,0.00,0.00
2014-03-26 02:40:00,2,29093,0,0.00,2,2,0,2,20638,35634,4638,29492,0,0,0,0,0.00,0.00,0.00,0.00
2014-03-26 02:50:00,2,18747,0,0.00,2,2,0,2,8944,32934,7222,15787,0,0,0,0,0.00,0.00,0.00,0.00
2014-03-26 03:00:00,2,10239,0,0.00,2,2,0,2,8057,11757,1159,10680,0,0,0,0,0.00,0.00,0.00,0.00
2014-03-26 03:10:00,2,7701,5,0.00,2,2,0,2,6665,8415,573,7690,0,10,5,5,0.00,0.00,0.00,0.00
2014-03-26 03:20:00,2,7508,10,0.00,2,2,0,2,6360,8605,664,7550,10,10,0,10,0.00,0.00,0.00,0.00
2014-03-26 03:30:00,2,8698,16,0.00,2,2,0,2,6921,13278,1949,7962,10,71,18,10,0.00,0.00,0.00,0.00
2014-03-26 03:40:00,2,9770,23,0.00,2,2,0,2,6053,16115,3269,8646,10,77,26,10,0.00,0.00,0.00,0.00
2014-03-26 03:50:00,2,7992,10,0.00,2,2,0,2,5563,11915,2049,7265,10,10,0,10,0.00,0.00,0.00,0.00
2014-03-26 04:00:00,2,6791,10,0.00,2,2,0,2,5069,7990,1035,7264,10,10,0,10,0.00,0.00,0.00,0.00
2014-03-26 04:10:00,2,6393,10,0.00,2,2,0,2,5547,7497,644,6310,10,10,0,10,0.00,0.00,0.00,0.00
2014-03-26 04:20:00,2,5353,10,0.00,2,2,0,2,3056,9477,1802,5248,10,10,0,10,0.00,0.00,0.00,0.00
2014-03-26 04:30:00,2,5469,10,0.00,2,2,0,2,4176,6772,759,5454,10,10,0,10,0.00,0.00,0.00,0.00
2014-03-26 04:40:00,2,7555,10,0.00,2,2,0,2,6658,8403,545,7642,10,10,0,10,0.00,0.00,0.00,0.00
2014-03-26 04:50:00,2,17570,8,0.00,2,2,0,2,8713,24307,3942,18168,0,10,4,10,0.00,0.00,0.00,0.00
2014-03-26 05:00:00,2,14758,0,0.00,2,2,0,2,12193,18833,2375,13838,0,0,0,0,0.00,0.00,0.00,0.00
2014-03-26 05:10:00,2,15506,0,0.00,2,2,0,2,10828,21854,3546,13906,0,0,0,0,0.00,0.00,0.00,0.00
2014-03-26 05:20:00,2,13339,0,0.00,2,2,0,2,10020,18507,2688,12990,0,0,0,0,0.00,0.00,0.00,0.00
2014-03-26 05:30:00,2,11096,0,0.00,2,2,0,2,8990,13177,1157,11012,0,0,0,0,0.00,0.00,0.00,0.00
2014-03-26 05:40:00,2,10211,0,0.00,2,2,0,2,7923,13146,1753,9806,0,0,0,0,0.00,0.00,0.00,0.00
2014-03-26 05:50:00,2,6490,7,0.00,2,2,0,2,2699,11747,2997,5826,0,10,5,10,0.00,0.00,0.00,0.00
2014-03-26 06:00:00,2,5314,10,0.00,2,2,0,2,2770,9011,1848,4772,10,10,0,10,0.00,0.00,0.00,0.00
2014-03-26 06:10:00,2,3708,10,0.00,2,2,0,2,2569,6482,1085,3607,10,10,0,10,0.00,0.00,0.00,0.00
2014-03-26 06:20:00,2,2027,10,0.00,2,2,0,2,1548,2985,429,2032,10,10,0,10,0.00,0.00,0.00,0.00
2014-03-26 06:30:00,2,1489,10,0.00,2,2,0,2,1131,1865,271,1456,10,10,0,10,0.00,0.00,0.00,0.00
2014-03-26 06:40:00,2,1526,10,0.00,2,2,0,2,1025,2946,640,1166,10,10,0,10,0.00,0.00,0.00,0.00
2014-03-26 06:50:00,2,2359,10,0.00,2,2,0,2,1790,3183,447,2128,10,10,0,10,0.00,0.00,0.00,0.00
2014-03-26 07:00:00,2,2988,10,0.00,2,2,0,2,1948,4151,690,2805,10,10,0,10,0.00,0.00,0.00,0.00
2014-03-26 07:10:00,2,3519,10,0.00,2,2,0,2,1368,6233,1385,3180,10,10,0,10,0.00,0.00,0.00,0.00
2014-03-26 07:20:00,2,3180,10,0.00,2,2,0,2,1892,5094,914,3024,10,10,0,10,0.00,0.00,0.00,0.00
2014-03-26 07:30:00,2,2305,10,0.00,2,2,0,2,1174,5167,1139,1980,10,10,0,10,0.00,0.00,0.00,0.00
2014-03-26 07:40:00,2,1949,10,0.00,2,2,0,2,1007,3635,823,1731,10,10,0,10,0.00,0.00,0.00,0.00
2014-03-26 07:50:00,2,1770,10,0.00,2,2,0,2,1058,3178,788,1466,10,10,0,10,0.00,0.00,0.00,0.00
2014-03-26 08:00:00,2,2603,10,0.00,2,2,0,2,740,5065,1086,2444,10,10,0,10,0.00,0.00,0.00,0.00
2014-03-26 08:10:00,2,1237,10,0.00,2,2,0,2,719,2512,499,1242,10,10,0,10,0.00,0.00,0.00,0.00
2014-03-26 08:20:00,2,1861,10,0.00,2,2,0,2,918,3098,689,1674,10,10,0,10,0.00,0.00,0.00,0.00
2014-03-26 08:30:00,2,1675,47,0.09,2,2,0,2,1101,2172,374,1586,10,71,30,71,0.00,0.80,0.24,0.00
2014-03-26 08:40:00,2,733,71,0.12,2,2,0,2,458,2454,577,546,71,71,0,71,0.00,0.35,0.10,0.10
2014-03-26 08:50:00,2,521,71,0.08,2,2,0,2,382,726,111,534,71,71,0,71,0.00,0.30,0.10,0.05
2014-03-26 09:00:00,2,511,71,0.21,2,2,0,2,440,599,53,530,71,71,0,71,0.00,0.50,0.20,0.10
2014-03-26 09:10:00,2,1260,71,0.37,2,2,0,2,461,2244,607,1358,71,71,0,71,0.10,0.55,0.16,0.45
2014-03-26 09:20:00,2,1356,71,0.54,2,2,0,2,1039,2377,408,1208,71,71,0,71,0.10,1.35,0.34,0.42
2014-03-26 09:30:00,2,2131,71,0.51,2,2,0,2,1753,2773,364,2019,71,71,0,71,0.15,1.15,0.30,0.45
2014-03-26 09:40:00,2,3043,71,0.54,2,2,0,2,1783,5173,931,3058,71,71,0,71,0.10,1.25,0.36,0.45
2014-03-26 09:50:00,2,3027,71,0.52,2,2,0,2,1786,5049,1149,2572,71,71,0,71,0.10,1.15,0.29,0.45
2014-03-26 10:00:00,2,2453,71,1.01,2,2,0,2,1436,4064,948,2027,71,71,0,71,0.10,1.70,0.53,1.02
2014-03-26 10:10:00,2,3510,71,0.95,2,2,0,2,2379,6217,1073,3288,71,71,0,71,0.50,1.70,0.40,0.85
2014-03-26 10:20:00,2,1818,71,1.52,2,2,0,2,849,2558,540,1872,71,71,0,71,0.80,3.30,0.70,1.33
2014-03-26 10:30:00,2,2434,71,1.15,2,2,0,2,1101,3895,801,2347,71,71,0,71,0.40,1.80,0.47,1.23
2014-03-26 10:40:00,2,2119,71,1.29,2,2,0,2,1031,3437,804,1900,71,71,0,71,0.30,2.90,0.70,1.15
2014-03-26 10:50:00,2,4497,71,0.38,2,2,0,2,3134,8494,1521,3934,71,71,0,71,0.10,0.70,0.18,0.35
2014-03-26 11:00:00,2,6943,71,0.19,2,2,0,2,4536,9784,1646,6834,71,71,0,71,0.00,0.80,0.22,0.10
2014-03-26 11:10:00,2,6132,71,0.36,2,2,0,2,4538,7812,999,6284,71,71,0,71,0.00,0.90,0.29,0.25
2014-03-26 11:20:00,2,4984,71,0.44,2,2,0,2,4221,6398,683,4777,71,71,0,71,0.15,0.80,0.19,0.43
2014-03-26 11:30:00,2,3988,71,0.77,2,2,0,2,2583,7472,1324,3776,71,71,0,71,0.05,1.65,0.46,0.78
2014-03-26 11:40:00,2,3538,71,0.42,2,2,0,2,1976,5031,963,3348,71,71,0,71,0.05,1.00,0.35,0.25
2014-03-26 11:50:00,2,4247,64,0.59,2,2,0,2,2756,8499,1611,3914,0,71,21,71,0.00,1.45,0.38,0.57
2014-03-26 12:00:00,2,5771,71,0.49,2,2,0,2,4260,7694,1267,5588,71,71,0,71,0.15,0.75,0.22,0.60
2014-03-26 12:10:00,2,8601,71,0.14,2,2,0,2,6797,11041,1175,8132,71,71,0,71,0.00,0.40,0.13,0.10
2014-03-26 12:20:00,2,10013,71,0.14,2,2,0,2,8018,11546,1130,10406,71,71,0,71,0.00,0.55,0.18,0.05
2014-03-26 12:30:00,2,9919,74,0.02,2,2,0,2,8999,11874,933,9687,71,78,3,71,0.00,0.10,0.03,0.00
2014-03-26 12:40:00,2,9442,75,0.02,2,2,0,2,8587,10314,542,9414,71,78,3,77,0.00,0.05,0.02,0.00
2014-03-26 12:50:00,2,9444,75,0.03,2,2,0,2,8405,10125,499,9466,71,78,3,77,0.00,0.15,0.05,0.00
2014-03-26 13:00:00,2,8518,77,0.03,2,2,0,2,6743,9370,753,8748,77,77,0,77,0.00,0.15,0.05,0.00
2014-03-26 13:10:00,2,8436,72,0.03,2,2,0,2,7346,10034,915,7983,71,77,2,71,0.00,0.10,0.04,0.00
2014-03-26 13:20:00,2,5830,73,0.12,2,2,0,2,4367,8872,1384,5272,71,77,3,71,0.00,0.35,0.14,0.05
2014-03-26 13:30:00,2,6233,73,0.04,2,2,0,2,5359,7178,528,6217,71,77,3,71,0.00,0.05,0.02,0.05
2014-03-26 13:40:00,2,7537,77,0.01,2,2,0,2,6181,9145,961,7440,77,77,0,77,0.00,0.05,0.02,0.00
2014-03-26 13:50:00,2,9707,77,0.00,2,2,0,2,7191,15295,2681,8550,77,77,0,77,0.00,0.00,0.00,0.00
2014-03-26 14:00:00,2,17728,23,0.00,2,2,0,2,14437,21353,2109,17726,0,77,35,0,0.00,0.00,0.00,0.00
2014-03-26 14:10:00,2,25832,0,0.00,2,2,0,2,19384,32070,4112,26258,0,0,0,0,0.00,0.00,0.00,0.00
2014-03-26 14:20:00,2,32277,0,0.00,2,2,0,2,23562,39501,4903,32038,0,0,0,0,0.00,0.00,0.00,0.00
2014-03-26 14:30:00,2,37534,0,0.00,2,2,0,2,26122,44449,5248,39104,0,0,0,0,0.00,0.00,0.00,0.00
2014-03-26 14:40:00,2,36258,0,0.00,2,2,0,2,27754,47501,6449,35372,0,0,0,0,0.00,0.00,0.00,0.00
2014-03-26 14:50:00,2,48831,0,0.00,2,2,0,2,45971,50000,1426,49710,0,0,0,0,0.00,0.00,0.00,0.00
2014-03-26 15:00:00,2,45782,0,0.00,2,2,0,2,32115,50000,5978,49846,0,0,0,0,0.00,0.00,0.00,0.00
2014-03-26 15:10:00,2,48485,0,0.00,2,2,0,2,45026,50000,1888,49834,0,0,0,0,0.00,0.00,0.00,0.00
2014-03-26 15:20:00,2,49994,0,0.00,2,2,0,2,49938,50000,19,50000,0,0,0,0,0.00,0.00,0.00,0.00
2014-03-26 15:30:00,2,48224,0,0.00,2,2,0,2,42461,50000,2936,50000,0,0,0,0,0.00,0.00,0.00,0.00
2014-03-26 15:40:00,2,46350,0,0.00,2,2,0,2,38511,50000,3257,47192,0,0,0,0,0.00,0.00,0.00,0.00
2014-03-26 15:50:00,2,47370,0,0.00,2,2,0,2,37675,50000,3753,49296,0,0,0,0,0.00,0.00,0.00,0.00
2014-03-26 16:00:00,2,49277,0,0.00,2,2,0,2,45843,50000,1275,50000,0,0,0,0,0.00,0.00,0.00,0.00
2014-03-26 16:10:00,2,49866,0,0.00,2,2,0,2,48665,50000,400,50000,0,0,0,0,0.00,0.00,0.00,0.00
2014-03-26 16:20:00,2,34390,43,0.02,2,2,0,2,9498,50000,15103,38484,0,71,35,71,0.00,0.10,0.03,0.00
2014-03-26 16:30:00,2,41779,37,0.01,2,2,0,2,9017,50000,14707,49241,0,78,37,36,0.00,0.10,0.03,0.00
2014-03-26 16:40:00,2,21126,57,0.07,2,2,0,2,5920,33897,8764,21793,0,71,28,71,0.00,0.30,0.09,0.05
2014-03-26 16:50:00,2,40181,43,0.01,2,2,0,2,25844,50000,8234,39588,0,71,35,71,0.00,0.15,0.05,0.00
2014-03-26 17:00:00,2,40340,30,0.02,2,2,0,2,22676,50000,10258,46422,0,71,31,20,0.00,0.10,0.03,0.00
2014-03-26 17:10:00,2,41842,53,0.00,2,2,0,2,14722,50000,11324,47419,0,78,35,74,0.00,0.00,0.00,0.00
2014-03-26 17:20:00,2,50000,0,0.00,2,2,0,2,50000,50000,0,50000,0,0,0,0,0.00,0.00,0.00,0.00
2014-03-26 17:30:00,2,46256,0,0.00,2,2,0,2,20361,50000,8756,50000,0,0,0,0,0.00,0.00,0.00,0.00
2014-03-26 17:40:00,2,47518,0,0.00,2,2,0,2,37200,50000,3858,48742,0,0,0,0,0.00,0.00,0.00,0.00
2014-03-26 17:50:00,2,49119,0,0.00,2,2,0,2,43494,50000,1997,50000,0,0,0,0,0.00,0.00,0.00,0.00
2014-03-26 18:00:00,2,49605,0,0.00,2,2,0,2,46845,50000,950,50000,0,0,0,0,0.00,0.00,0.00,0.00
2014-03-26 18:10:00,2,49602,0,0.00,2,2,0,2,46176,50000,1143,50000,0,0,0,0,0.00,0.00,0.00,0.00
2014-03-26 18:20:00,2,49881,0,0.00,2,2,0,2,48807,50000,358,50000,0,0,0,0,0.00,0.00,0.00,0.00
2014-03-26 18:30:00,2,50000,0,0.00,2,2,0,2,50000,50000,0,50000,0,0,0,0,0.00,0.00,0.00,0.00
2014-03-26 18:40:00,2,50000,0,0.00,2,2,0,2,50000,50000,0,50000,0,0,0,0,0.00,0.00,0.00,0.00
2014-03-26 18:50:00,2,49534,0,0.00,2,2,0,2,45341,50000,1398,50000,0,0,0,0,0.00,0.00,0.00,0.00
2014-03-26 19:00:00,2,45584,0,0.00,2,2,0,2,36321,50000,5570,48786,0,0,0,0,0.00,0.00,0.00,0.00
2014-03-26 19:10:00,2,50000,0,0.00,2,2,0,2,50000,50000,0,50000,0,0,0,0,0.00,0.00,0.00,0.00
2014-03-26 19:20:00,2,49922,0,0.00,2,2,0,2,49246,50000,225,50000,0,0,0,0,0.00,0.00,0.00,0.00
2014-03-26 19:30:00,2,49429,0,0.00,2,2,0,2,47434,50000,956,50000,0,0,0,0,0.00,0.00,0.00,0.00
2014-03-26 19:40:00,2,50000,0,0.00,2,2,0,2,50000,50000,0,50000,0,0,0,0,0.00,0.00,0.00,0.00
2014-03-26 19:50:00,2,50000,0,0.00,2,2,0,2,50000,50000,0,50000,0,0,0,0,0.00,0.00,0.00,0.00
2014-03-26 20:00:00,2,50000,0,0.00,2,2,0,2,50000,50000,0,50000,0,0,0,0,0.00,0.00,0.00,0.00
2014-03-26 20:10:00,2,50000,0,0.00,2,2,0,2,50000,50000,0,50000,0,0,0,0,0.00,0.00,0.00,0.00
2014-03-26 20:20:00,2,49328,0,0.00,2,2,0,2,45348,50000,1372,50000,0,0,0,0,0.00,0.00,0.00,0.00
2014-03-26 20:30:00,2,48483,0,0.00,2,2,0,2,43955,50000,1985,49672,0,0,0,0,0.00,0.00,0.00,0.00
2014-03-26 20:40:00,2,49741,0,0.00,2,2,0,2,49063,50000,372,50000,0,0,0,0,0.00,0.00,0.00,0.00
2014-03-26 20:50:00,2,48455,0,0.00,2,2,0,2,44591,50000,1768,49050,0,0,0,0,0.00,0.00,0.00,0.00
2014-03-26 21:00:00,2,49618,0,0.00,2,2,0,2,46702,50000,984,50000,0,0,0,0,0.00,0.00,0.00,0.00
2014-03-26 21:10:00,2,48377,0,0.00,2,2,0,2,41080,50000,3217,50000,0,0,0,0,0.00,0.00,0.00,0.00
2014-03-26 21:20:00,2,47547,0,0.00,2,2,0,2,41255,50000,3039,48982,0,0,0,0,0.00,0.00,0.00,0.00
2014-03-26 21:30:00,2,46164,0,0.00,2,2,0,2,39868,50000,4011,47316,0,0,0,0,0.00,0.00,0.00,0.00
2014-03-26 21:40:00,2,45392,0,0.00,2,2,0,2,39789,50000,3676,44376,0,0,0,0,0.00,0.00,0.00,0.00
2014-03-26 21:50:00,2,45566,0,0.00,2,2,0,2,37623,50000,3874,46440,0,0,0,0,0.00,0.00,0.00,0.00
2014-03-26 22:00:00,2,48636,0,0.00,2,2,0,2,45131,50000,1713,49861,0,0,0,0,0.00,0.00,0.00,0.00
2014-03-26 22:10:00,2,48064,0,0.00,2,2,0,2,40816,50000,3133,49957,0,0,0,0,0.00,0.00,0.00,0.00
2014-03-26 22:20:00,2,45108,0,0.00,2,2,0,2,41423,50000,3206,44332,0,0,0,0,0.00,0.00,0.00,0.00
2014-03-26 22:30:00,2,48857,0,0.00,2,2,0,2,45805,50000,1498,49960,0,0,0,0,0.00,0.00,0.00,0.00
2014-03-26 22:40:00,2,40072,0,0.00,2,2,0,2,28002,50000,7072,39755,0,0,0,0,0.00,0.00,0.00,0.00
2014-03-26 22:50:00,2,46195,0,0.00,2,2,0,2,40448,50000,3248,45661,0,0,0,0,0.00,0.00,0.00,0.00
2014-03-26 23:00:00,2,41227,0,0.00,2,2,0,2,34339,50000,6231,39618,0,0,0,0,0.00,0.00,0.00,0.00
2014-03-26 23:10:00,2,44479,0,0.00,2,2,0,2,39160,50000,4809,43524,0,0,0,0,0.00,0.00,0.00,0.00
2014-03-26 23:20:00,2,40176,0,0.00,2,2,0,2,32524,50000,4687,40216,0,0,0,0,0.00,0.00,0.00,0.00
2014-03-26 23:30:00,2,37978,0,0.00,2,2,0,2,30120,47556,5347,37670,0,0,0,0,0.00,0.00,0.00,0.00
2014-03-26 23:40:00,2,33648,0,0.00,2,2,0,2,22142,46633,7738,33630,0,0,0,0,0.00,0.00,0.00,0.00
2014-03-26 23:50:00,2,38958,0,0.00,2,2,0,2,27506,50000,7951,40305,0,0,0,0,0.00,0.00,0.00,0.00
